When you browse on this site, cookies collect data to enhance your experience and personalize the content and advertising you see.
Visit our Privacy Policy to learn more. By continuing to use the site, you agree to this use of cookies and data.

Hourly Weather Shrewsbury

Today, 11 August, Tuesday

Time Temperature Precipitation Wind Pressure Humidity
00:00 +18°C° 0 mm 2 mps 756 mmHg 98%
01:00 +19°C° 0.8 mm 2 mps 756 mmHg 98%
02:00 +19°C° 0.8 mm 2 mps 755 mmHg 98%
03:00 +19°C° 0.8 mm 2 mps 755 mmHg 98%
04:00 +19°C° 0 mm 2 mps 755 mmHg 97%
05:00 +20°C° 0 mm 1 mps 755 mmHg 97%
06:00 +19°C° 0 mm 2 mps 756 mmHg 95%
07:00 +20°C° 0 mm 2 mps 756 mmHg 92%
08:00 +21°C° 0 mm 2 mps 756 mmHg 89%
09:00 +23°C° 0 mm 1 mps 756 mmHg 86%
10:00 +24°C° 0 mm 2 mps 756 mmHg 80%
11:00 +25°C° 0 mm 2 mps 756 mmHg 75%
12:00 +27°C° 0 mm 2 mps 756 mmHg 69%
13:00 +28°C° 0 mm 1 mps 756 mmHg 66%
14:00 +29°C° 0 mm 1 mps 755 mmHg 62%
15:00 +29°C° 0 mm 1 mps 755 mmHg 58%
16:00 +29°C° 0 mm 1 mps 755 mmHg 62%
17:00 +29°C° 0 mm 1 mps 755 mmHg 66%
18:00 +28°C° 0 mm 1 mps 755 mmHg 70%
19:00 +26°C° 0 mm 1 mps 755 mmHg 76%
20:00 +25°C° 0 mm 2 mps 755 mmHg 81%
21:00 +23°C° 0 mm 2 mps 755 mmHg 87%
22:00 +21°C° 0 mm 2 mps 755 mmHg 89%
23:00 +20°C° 0 mm 2 mps 755 mmHg 91%

Tomorrow, 12 August, Wednesday

Time Temperature Precipitation Wind Pressure Humidity
00:00 +21°C° 0 mm 1 mps 755 mmHg 94%
01:00 +20°C° 0 mm 1 mps 755 mmHg 94%
02:00 +20°C° 0 mm 1 mps 755 mmHg 94%
03:00 +20°C° 0 mm 1 mps 754 mmHg 95%
04:00 +20°C° 0.2 mm 1 mps 754 mmHg 95%
05:00 +20°C° 0.2 mm 1 mps 754 mmHg 95%
06:00 +20°C° 0.2 mm 1 mps 754 mmHg 95%
07:00 +20°C° 0.1 mm 2 mps 754 mmHg 91%
08:00 +23°C° 0.1 mm 2 mps 754 mmHg 86%
09:00 +24°C° 0.1 mm 2 mps 754 mmHg 82%
10:00 +26°C° 0 mm 2 mps 754 mmHg 77%
11:00 +27°C° 0 mm 2 mps 754 mmHg 72%
12:00 +28°C° 0 mm 2 mps 754 mmHg 67%
13:00 +29°C° 0 mm 2 mps 754 mmHg 63%
14:00 +30°C° 0 mm 2 mps 754 mmHg 60%
15:00 +31°C° 0 mm 2 mps 754 mmHg 56%
16:00 +30°C° 0.8 mm 2 mps 753 mmHg 63%
17:00 +29°C° 0.8 mm 2 mps 753 mmHg 69%
18:00 +28°C° 0.8 mm 2 mps 753 mmHg 76%
19:00 +26°C° 2.1 mm 2 mps 753 mmHg 82%
20:00 +24°C° 2.1 mm 2 mps 753 mmHg 87%
21:00 +21°C° 2.1 mm 2 mps 753 mmHg 93%
22:00 +21°C° 1.6 mm 3 mps 753 mmHg 94%
23:00 +20°C° 1.6 mm 3 mps 753 mmHg 95%

Day after tomorrow, 13 August, Thursday

Time Temperature Precipitation Wind Pressure Humidity
00:00 +20°C° 1.6 mm 3 mps 753 mmHg 96%
01:00 +20°C° 1.4 mm 3 mps 753 mmHg 96%
02:00 +20°C° 1.4 mm 2 mps 753 mmHg 97%
03:00 +19°C° 1.4 mm 2 mps 753 mmHg 97%
04:00 +20°C° 0.6 mm 2 mps 753 mmHg 96%
05:00 +20°C° 0.6 mm 2 mps 753 mmHg 96%
06:00 +20°C° 0.6 mm 2 mps 753 mmHg 95%
07:00 +21°C° 0.1 mm 2 mps 753 mmHg 92%
08:00 +23°C° 0.1 mm 2 mps 753 mmHg 88%
09:00 +24°C° 0.1 mm 2 mps 754 mmHg 84%
10:00 +25°C° 0 mm 2 mps 753 mmHg 81%
11:00 +25°C° 0 mm 3 mps 753 mmHg 78%
12:00 +26°C° 0 mm 3 mps 753 mmHg 76%
13:00 +27°C° 0 mm 3 mps 753 mmHg 75%
14:00 +27°C° 0 mm 3 mps 753 mmHg 75%
15:00 +27°C° 0 mm 3 mps 753 mmHg 75%
16:00 +27°C° 0.1 mm 3 mps 753 mmHg 77%
17:00 +27°C° 0.1 mm 2 mps 753 mmHg 79%
18:00 +26°C° 0.1 mm 2 mps 752 mmHg 81%
19:00 +25°C° 1.3 mm 2 mps 753 mmHg 85%
20:00 +22°C° 1.3 mm 3 mps 753 mmHg 89%
21:00 +21°C° 1.3 mm 3 mps 753 mmHg 92%
22:00 +20°C° 0.5 mm 2 mps 753 mmHg 93%
23:00 +20°C° 0.5 mm 2 mps 753 mmHg 94%

14 August, Friday

Time Temperature Precipitation Wind Pressure Humidity
00:00 +19°C° 0.5 mm 2 mps 753 mmHg 95%
01:00 +19°C° 0.1 mm 2 mps 753 mmHg 95%
02:00 +19°C° 0.1 mm 2 mps 753 mmHg 95%
03:00 +19°C° 0.1 mm 1 mps 753 mmHg 95%
04:00 +19°C° 0.1 mm 1 mps 753 mmHg 95%
05:00 +20°C° 0.1 mm 1 mps 753 mmHg 94%
06:00 +20°C° 0.1 mm 1 mps 753 mmHg 94%
07:00 +20°C° 0.1 mm 1 mps 754 mmHg 93%
08:00 +20°C° 0.1 mm 1 mps 754 mmHg 92%
09:00 +21°C° 0.1 mm 1 mps 754 mmHg 91%
10:00 +21°C° 0.1 mm 1 mps 754 mmHg 90%
11:00 +21°C° 0.1 mm 1 mps 754 mmHg 89%
12:00 +22°C° 0.1 mm 1 mps 755 mmHg 89%
13:00 +22°C° 0.1 mm 1 mps 755 mmHg 87%
14:00 +22°C° 0.1 mm 1 mps 755 mmHg 86%
15:00 +23°C° 0.1 mm 1 mps 755 mmHg 85%
16:00 +23°C° 0 mm 1 mps 755 mmHg 86%
17:00 +23°C° 0 mm 1 mps 755 mmHg 86%
18:00 +23°C° 0 mm 1 mps 755 mmHg 86%
19:00 +22°C° 0.1 mm 1 mps 756 mmHg 88%
20:00 +22°C° 0.1 mm 1 mps 756 mmHg 90%
21:00 +21°C° 0.1 mm 1 mps 756 mmHg 91%
22:00 +21°C° 0.2 mm 1 mps 756 mmHg 92%
23:00 +20°C° 0.2 mm 1 mps 756 mmHg 93%

15 August, Saturday

Time Temperature Precipitation Wind Pressure Humidity
00:00 +20°C° 0.2 mm 1 mps 756 mmHg 94%
01:00 +19°C° 0.1 mm 1 mps 756 mmHg 94%
02:00 +19°C° 0.1 mm 1 mps 756 mmHg 95%
03:00 +19°C° 0.1 mm 1 mps 756 mmHg 95%
04:00 +19°C° 0.1 mm 1 mps 756 mmHg 95%
05:00 +19°C° 0.1 mm 1 mps 756 mmHg 94%
06:00 +19°C° 0.1 mm 1 mps 756 mmHg 94%
07:00 +19°C° 0.1 mm 1 mps 756 mmHg 93%
08:00 +19°C° 0.1 mm 1 mps 756 mmHg 93%
09:00 +19°C° 0.1 mm 1 mps 756 mmHg 92%
10:00 +19°C° 0.1 mm 2 mps 756 mmHg 90%
11:00 +19°C° 0.1 mm 2 mps 755 mmHg 89%
12:00 +20°C° 0.1 mm 2 mps 755 mmHg 88%
13:00 +21°C° 0 mm 2 mps 755 mmHg 85%
14:00 +22°C° 0 mm 1 mps 755 mmHg 82%
15:00 +23°C° 0 mm 1 mps 755 mmHg 79%
16:00 +23°C° 0.1 mm 1 mps 754 mmHg 81%
17:00 +23°C° 0.1 mm 1 mps 754 mmHg 82%
18:00 +21°C° 0.1 mm 0 mps 754 mmHg 84%
19:00 +20°C° 0.1 mm 0 mps 754 mmHg 86%
20:00 +21°C° 0.1 mm 1 mps 754 mmHg 88%
21:00 +20°C° 0.1 mm 1 mps 754 mmHg 90%
22:00 +20°C° 0 mm 1 mps 754 mmHg 91%
23:00 +20°C° 0 mm 1 mps 754 mmHg 92%

16 August, Sunday

Time Temperature Precipitation Wind Pressure Humidity
00:00 +19°C° 0 mm 1 mps 754 mmHg 94%
01:00 +19°C° 0.1 mm 1 mps 753 mmHg 95%
02:00 +17°C° 0.1 mm 0 mps 753 mmHg 95%
03:00 +16°C° 0.1 mm 0 mps 753 mmHg 96%
04:00 +19°C° 0 mm 1 mps 753 mmHg 97%
05:00 +19°C° 0 mm 1 mps 753 mmHg 97%
06:00 +19°C° 0 mm 1 mps 753 mmHg 97%
07:00 +20°C° 0 mm 1 mps 753 mmHg 93%
08:00 +20°C° 0 mm 2 mps 753 mmHg 89%
09:00 +21°C° 0 mm 2 mps 753 mmHg 85%
10:00 +23°C° 0.7 mm 2 mps 753 mmHg 82%
11:00 +24°C° 0.7 mm 2 mps 753 mmHg 78%
12:00 +25°C° 0.7 mm 2 mps 753 mmHg 74%
13:00 +24°C° 1.7 mm 2 mps 752 mmHg 75%
14:00 +24°C° 1.7 mm 2 mps 752 mmHg 76%
15:00 +24°C° 1.7 mm 2 mps 752 mmHg 77%
16:00 +23°C° 1.3 mm 2 mps 752 mmHg 80%
17:00 +21°C° 1.3 mm 2 mps 752 mmHg 83%
18:00 +21°C° 1.3 mm 2 mps 752 mmHg 87%
19:00 +19°C° 0.2 mm 2 mps 752 mmHg 89%
20:00 +18°C° 0.2 mm 2 mps 752 mmHg 92%
21:00 +17°C° 0.2 mm 2 mps 752 mmHg 94%
22:00 +16°C° 0 mm 2 mps 752 mmHg 94%
23:00 +16°C° 0 mm 2 mps 753 mmHg 94%
Show more